EFIV Weather Reports


time (UTC)temp
C
wind
direction
speed
KPH
gust
KPH
rain 1hr
cm
rain 24hr
cm
rain mn
cm
humidity
%
barometer
mb
20260506144725 5 231 6.4 11.3 0.00 0.00 0.00 48 1008.3
20260506142726 4 273 4.8 11.3 0.00 0.00 0.00 57 1008.3
20260506140726 3 314 9.7 17.7 0.00 0.00 0.00 62 1008.3
20260506134726 3 308 12.9 17.7 0.00 0.00 0.00 61 1008.3
20260506132726 4 307 8.0 16.1 0.00 0.00 0.00 52 1008.1
20260506124725 4 3 3.2 9.7 0.00 0.00 0.00 53 1007.8
20260506122725 3 330 9.7 16.1 0.00 0.00 0.00 59 1007.8
20260506120726 3 261 4.8 9.7 0.00 0.00 0.00 58 1007.7
20260506114726 2 274 11.3 17.7 0.00 0.00 0.00 66 1007.6
20260506112726 2 288 19.3 27.4 0.00 0.00 0.00 72 1007.4
20260506110725 3 357 8.0 11.3 0.00 0.00 0.00 50 1007.0
20260506104727 3 271 6.4 11.3 0.00 0.00 0.00 49 1006.8
20260506102727 3 306 6.4 12.9 0.00 0.00 0.00 54 1006.6
20260506100729 3 291 12.9 17.7 0.00 0.00 0.00 51 1006.5
20260506094728 3 284 11.3 19.3 0.00 0.00 0.00 47 1006.2
20260506092728 3 262 9.7 16.1 0.00 0.00 0.00 47 1006.0
20260506090727 3 284 9.7 19.3 0.00 0.00 0.00 50 1005.9
20260506084728 3 23 6.4 16.1 0.00 0.00 0.00 48 1005.8
20260506082728 2 273 9.7 14.5 0.00 0.00 0.00 52 1005.6
20260506080727 2 24 11.3 17.7 0.00 0.00 0.00 52 1005.4
20260506072729 3 20 8.0 19.3 0.00 0.00 0.00 53 1005.1
20260506070728 2 339 6.4 9.7 0.00 0.00 0.00 55 1005.1
20260506060727 1 352 4.8 9.7 0.00 0.00 0.00 67 1004.8
20260506050727 0 2 8.0 11.3 0.00 0.00 0.00 72 1004.5
20260506044727 1 351 8.0 14.5 0.00 0.00 0.00 69 1004.3
20260506042727 1 18 6.4 12.9 0.00 0.00 0.00 73 1004.2
20260506040727 1 22 6.4 8.0 0.00 0.00 0.00 75 1004.0
20260506034728 0 254 3.2 4.8 0.00 0.00 0.00 82 1003.9
20260506032727 0 51 1.6 3.2 0.00 0.00 0.00 86 1003.8
20260506030727 -1 32 6.4 9.7 0.00 0.00 0.00 88 1003.6
20260506024727 -1 45 6.4 9.7 0.00 0.00 0.00 87 1003.4
20260506022727 -1 38 4.8 6.4 0.00 0.00 0.00 84 1003.2
20260506020726 0 20 4.8 4.8 0.00 0.00 0.00 82 1003.1
20260506014726 0 22 4.8 6.4 0.00 0.00 0.00 82 1003.0
20260506012726 0 22 6.4 8.0 0.00 0.00 0.00 84 1002.8
20260506010727 0 27 4.8 6.4 0.00 0.00 0.00 81 1002.6
20260506004725 0 19 6.4 9.7 0.00 0.00 0.00 82 1002.5
20260506002726 0 23 6.4 9.7 0.00 0.00 0.00 79 1002.3
20260506000726 0 16 6.4 8.0 0.00 0.00 0.00 77 1002.2
20260505234726 0 16 8.0 9.7 0.00 0.00 0.00 78 1002.1
20260505232726 0 18 9.7 11.3 0.00 0.00 0.00 78 1001.9
20260505230726 0 34 6.4 8.0 0.00 0.00 0.00 81 1001.8
20260505224726 0 38 6.4 6.4 0.00 0.00 0.00 80 1001.6
20260505222726 0 20 6.4 9.7 0.00 0.00 0.00 79 1001.5
20260505220726 0 47 9.7 12.9 0.00 0.00 0.00 78 1001.4
20260505214726 1 36 12.9 16.1 0.00 0.00 0.00 73 1001.1
20260505212726 1 39 14.5 17.7 0.00 0.00 0.00 74 1000.9
20260505210725 1 31 12.9 20.9 0.00 0.00 0.00 73 1000.7
20260505204726 1 21 11.3 17.7 0.00 0.00 0.00 74 1000.6
20260505202726 1 33 9.7 14.5 0.00 0.00 0.00 76 1000.4
20260505200725 1 29 11.3 14.5 0.00 0.00 0.00 77 1000.2
20260505194724 1 23 12.9 20.9 0.00 0.00 0.00 80 1000.1
20260505192725 1 16 16.1 22.5 0.00 0.00 0.00 81 1000.0
20260505190725 1 16 17.7 29.0 0.00 0.00 0.00 83 999.8
20260505184725 2 19 17.7 25.7 0.00 0.00 0.00 75 999.6
20260505182724 2 21 19.3 25.7 0.00 0.00 0.00 76 999.3
20260505180724 2 24 19.3 27.4 0.00 0.00 0.00 74 999.0
20260505174724 2 20 22.5 30.6 0.00 0.00 0.00 75 998.7
20260505172724 2 16 17.7 27.4 0.00 0.00 0.00 75 998.5
20260505170724 3 30 17.7 27.4 0.00 0.00 0.00 74 998.3
20260505164724 2 40 19.3 29.0 0.00 0.00 0.00 75 998.2
20260505162724 2 33 20.9 32.2 0.00 0.00 0.00 76 998.0
20260505160724 3 53 22.5 29.0 0.00 0.00 0.00 81 997.9
20260505152724 3 46 19.3 27.4 0.00 0.00 0.00 83 997.4
20260505150724 3 53 17.7 22.5 0.00 0.00 0.00 89 997.3